DECAYED

STARLINK-2035, 47651 (Decayed)

Orbit data source: Space-Track

STARLINK-2035, 47651 was a payload satellite owned by SpaceX/Seattle (US) in LEO that was launched on Tue, 16 Feb 2021 UTC via an FALCON 9 launch vehicle from the Air Force Eastern Test Range (AFETR). Payload-class satellites include a variety of spacecraft equipped with specific instruments for various scientific and technological missions. These include communications satellites like Starlink; space stations such as the ISS; scientific satellites like the Hubble; Earth observation satellites from companies like Planet Labs, Umbra, and HawkEye 360; GPS; miniature CubeSats for education and research; and military/defense satellites.

Not visible in the next 10 days
Identifier
47651, 2021-012AH
Orbit
Decayed
Country
Flag of USUS
Related business
Manufacturer
SpaceX/Seattle
Mission
Decayed Commercial Communications
Bus & Motor
STARLINK, Unknown motor
Mass
260 kg wet, ~248 kg dry
Launch date (UTC)
2021-02-16 (5 years ago)
Launch vehicle
FALCON 9
Launch site
Air Force Eastern Test Range (AFETR)
Object type
Payload
Rocket body
Debris
Shape & HBR
Box + 1 Pan, 4.4 m
Radar Cross Section
13.562 m², Large (>1 m²)

Expand to show TLE details & history
Last TLE update: 5 months ago

TLE from 5 months ago
0 STARLINK-2035
1 47651U 21012AH  25089.24139106  .22732242  12532-4  60862-3 0  9995
2 47651  53.0275 151.8283 0002537 285.9305 186.0895 16.45714879227914
Epoch: 2025-03-30T05:47Z
TLE epoch observation values (Epoch: 2025-03-30T05:47:36.187Z)
Latitude
47.94087°
Longitude
1.00263°
Altitude
157.583 km
Speed
7.817 km/s
True Right ascension
18h 23m 06s
True Declination
47° 45' 14"
Sunlit
Object was in daylight at epoch
Visualization orbit readout
Latitude
Unknown
Longitude
Unknown
Altitude
Unknown
Speed
Unknown
Apparent Right ascension
Unknown
Apparent Declination
Unknown
Sunlit
N/A
Visualization observer readout
Local Sidereal Time
18:03:23
Azimuth
Unknown
Elevation
Unknown
Doppler factor
Unknown
Orbital elements
Apogee altitude
152.592 km
Perigee altitude
149.279 km
Semi-major axis
6,529.072 km
Eccentricity
0.00025
Inclination
53.0275°
RAAN
151.8283°
Arg. of periapsis
285.9305°
True anomaly
186.08642°
Mean anomaly
186.0895°
Eccentric anomaly
186.08796°
Mean motion
4.11402 °/min
Orbital period
87.51 mins
BSTAR
0.00060862
Loading maneuver chart data...
Computing Atmospheric mass density...
Loading historical data...
Loading historical data...
Loading historical data...
Loading historical data...
Loading historical data...
Loading historical data...
Loading historical data...

Documentation

Showing up to 5 results
|